[[{"header":{"parameterUnit":"m.s-1","parameterCategory":1,"la1":30.2991,"la2":30.254,"lo1":-89.0895,"lo2":-89.0444,"dy":0.0017,"dx":0.0017,"nx":28,"ny":28,"refTime":"2025-08-08T03:00:00:Z","depth":0,"parameterNumber":2,"parameterNumberName":"U-component_of_WINDS"},"data":[0,0,0,0,0,0,0,0,0,0,0,0,0,0,0,0,0,0,0,0,0,0,0,0,0,0,0,0,0,0,0,0,0,0,0,0,0,0,0,0,0,0,0,0,0,0,0,0,0,0,0,0,0,0,0,0,0,0,-6.5275,-6.5275,0,-6.5285,-6.5285,-6.5286,-6.5055,-6.5049,-6.5043,-6.5037,-6.505,-6.5056,-6.5062,0,0,0,0,0,0,0,0,0,0,0,0,0,-6.5057,-6.5062,-6.5275,-6.5275,-6.5275,-6.5285,-6.5285,-6.5286,-6.5057,-6.5049,-6.5041,-6.5034,-6.5048,-6.5055,-6.5062,0,0,0,0,0,0,0,0,0,0,0,0,0,-6.5118,-6.5064,-6.5275,-6.5162,-6.5152,-6.5285,-6.5285,-6.5286,-6.5058,-6.5049,-6.504,-6.5031,-6.5045,-6.5054,-6.5063,-6.5306,0,0,-6.5091,-6.5095,0,0,0,0,0,0,0,0,-6.5115,-6.5126,-6.5178,-6.517,-6.5159,-6.5159,-6.5213,-6.5292,-6.506,-6.5094,-6.5037,-6.5026,-6.5094,-6.5098,-6.5121,-6.5306,-6.5307,-6.5092,-6.5098,-6.5101,-6.5104,0,0,0,0,0,0,0,-6.5111,-6.5125,-6.5279,-6.5179,-6.5168,-6.5111,-6.5109,-6.5227,-6.5146,-6.509,-6.5073,-6.5078,-6.5087,-6.5113,-6.5119,-6.5307,-6.5092,-6.51,-6.5106,-6.5109,-6.569,-6.57,0,0,0,0,0,0,-6.5122,-6.5123,-6.5278,-6.5279,-6.5114,-6.5123,-6.5121,-6.5169,-6.5144,-6.5131,-6.5086,-6.5067,-6.5102,-6.5109,-6.5119,-6.5399,-6.5101,-6.511,-6.5115,-6.5681,-6.5693,-6.5703,0,0,0,0,0,0,-6.5118,-6.5138,-6.5278,-6.5196,-6.521,-6.5136,-6.5192,-6.5174,-6.5199,-6.514,-6.5125,-6.5127,-6.5094,-6.5106,-6.526,-6.5397,-6.5114,-6.5122,-6.5669,-6.5684,-6.5698,-6.5964,0,0,0,0,0,0,-6.5113,-6.5138,-6.5229,-6.52,-6.5215,-6.542,-6.52,-6.5181,-6.5215,-6.5191,-6.5175,-6.5163,-6.5088,-6.5248,-6.527,-6.5404,-6.513,-6.5656,-6.5676,-6.5693,-6.5942,-6.5986,-6.6023,0,0,0,0,0,-6.5106,-6.5304,-6.5235,-6.5255,-6.5327,-6.5428,-6.5436,-6.5345,-6.5227,-6.5318,-6.5281,-6.5164,-6.5379,-6.5266,-6.5288,-6.5428,-6.5647,-6.567,-6.5692,-6.5924,-6.5977,-6.6022,0,0,0,0,0,0,-6.5351,-6.5298,-6.5221,-6.5415,-6.5428,-6.5389,-6.55,-6.5405,-6.5451,-6.5426,-6.5312,-6.531,-6.5483,-6.5471,-6.5346,-6.566,-6.5492,-6.552,-6.5661,-6.5711,-6.5751,-6.5749,-6.5137,0,0,0,0,0,-6.5428,-6.5513,-6.5463,-6.5639,-6.565,-6.5575,-6.5615,-6.5544,-6.5553,-6.5557,-6.553,-6.5544,-6.5613,-6.5662,-6.5723,-6.5941,-6.5933,-6.6047,-6.6088,-6.6121,-6.6146,-6.6259,-6.6308,-6.5777,-6.5777,-6.5776,0,0,-6.5587,-6.5568,-6.5629,-6.5688,-6.5689,-6.5781,-6.5581,-6.5686,-6.5752,-6.5573,-6.5716,-6.5698,-6.5705,-6.5892,-6.5972,-6.5887,-6.6292,-6.615,-6.6177,-6.6183,-6.6287,-6.6337,-6.6382,-6.5792,-6.5789,-6.5787,0,0,-6.5922,-6.5918,-6.6064,-6.6069,-6.6074,-6.6023,-6.6059,-6.6035,-6.6015,-6.6158,-6.6024,-6.6103,-6.6227,-6.6237,-6.6258,-6.66,-6.6494,-6.6624,-6.6833,-6.6945,-6.6987,-6.7023,-6.7143,-6.7188,-6.6649,-6.665,-6.665,0,-6.6119,-6.6251,-6.6151,-6.6265,-6.6294,-6.6136,-6.6283,-6.6294,-6.6319,-6.6343,-6.6247,-6.6398,-6.6392,-6.6578,-6.6662,-6.6686,-6.6722,-6.6623,-6.6989,-6.7024,-6.7057,-6.717,-6.7216,-6.6665,-6.6664,-6.6662,-6.6661,0,-6.6492,-6.6586,-6.6703,-6.6731,-6.6774,-6.6904,-6.6824,-6.688,-6.6806,-6.6766,-6.6913,-6.69,-6.6956,-6.6996,-6.6925,-6.7172,-6.7119,-6.7009,-6.6836,-6.7125,-6.7229,-6.7272,-6.6688,-6.6682,-6.6677,-6.6674,0,0,-6.6979,-6.6951,-6.6995,-6.7005,-6.7,-6.7071,-6.7195,-6.7248,-6.7298,-6.7322,-6.7421,-6.7531,-6.7428,-6.7453,-6.7382,-6.7481,-6.775,-6.7357,-6.7355,-6.7429,-6.8021,-6.8102,-6.8154,-6.7682,-6.7689,-6.7696,-6.8019,0,-6.7303,-6.7511,-6.7425,-6.7641,-6.7726,-6.7579,-6.7686,-6.7695,-6.7661,-6.7729,-6.7692,-6.777,-6.763,-6.7643,-6.7734,-6.7699,-6.7867,-6.7674,-6.7772,-6.7777,-6.7772,-6.8209,-6.8295,-6.8601,-6.806,-6.8067,-6.8072,0,-6.7708,-6.7748,-6.7972,-6.7951,-6.7984,-6.8082,-6.8124,-6.8191,-6.8199,-6.8167,-6.8196,-6.8104,-6.8224,-6.8056,-6.8219,-6.809,-6.8125,-6.8114,-6.8124,-6.8127,-6.794,-6.8222,-6.8696,-6.8742,-6.8135,-6.813,-6.8126,0,-6.8038,-6.8148,-6.8296,-6.831,-6.829,-6.8362,-6.8357,-6.8355,-6.8393,-6.8432,-6.8455,-6.8508,-6.8536,-6.8579,-6.8503,-6.8388,-6.8678,-6.8503,-6.8654,-6.8656,-6.8719,-6.8715,-6.9204,-6.8748,-6.8747,-6.8746,-6.8745,0,-6.8407,-6.855,-6.8444,-6.8535,-6.869,-6.8592,-6.8748,-6.8727,-6.8727,-6.8811,-6.8689,-6.877,-6.8667,-6.8739,-6.8682,-6.8825,-6.8839,-6.8817,-6.8799,-6.8826,-6.8829,-6.8846,-6.8822,-6.8758,-6.8755,-6.8753,-6.8751,0,-6.8801,-6.8736,-6.8887,-6.8856,-6.8852,-6.8968,-6.8941,-6.9024,-6.8983,-6.9091,-6.9111,-6.9047,-6.9125,-6.9055,-6.9131,-6.9092,-6.9283,-6.9236,-6.928,-6.9266,-6.942,-6.9405,-6.9933,-6.9997,-6.9503,-6.9508,-6.9512,0,-6.9039,-6.9145,-6.9126,-6.9173,-6.9176,-6.9254,-6.9292,-6.92,-6.9245,-6.9262,-6.9344,-6.9412,-6.9461,-6.9594,-6.9554,-6.9612,-6.9564,-6.9745,-6.9572,-6.9595,-6.9564,-6.9557,-6.9567,-6.978,-6.9786,-6.979,-6.9794,0,-6.9468,-6.943,-6.949,-6.954,-6.9589,-6.9623,-6.9648,-6.9694,-6.96,-6.9657,-6.9736,-6.9774,-6.9852,-6.9921,-6.9966,-6.9961,-6.9863,-6.985,-6.9887,-6.9914,-6.9934,-6.9923,-6.9373,-6.9837,-6.9833,-6.983,-6.9827,-6.9826,-6.9788,-6.9875,-6.9875,-6.9946,-6.9955,-6.9982,-7.0058,-7.0027,-7.0091,-7.0146,-7.0088,-7.0184,-7.0189,-7.0239,-7.0247,-7.0321,-7.0245,-7.03,-7.0313,-7.0327,-7.0349,-6.9926,-7.0329,-7.0328,-7.0327,-7.0325,-7.0324,0,-7.0208,-7.0202,-7.0268,-7.0306,-7.0363,-7.0266,-7.0289,-7.0342,-7.0428,-7.0441,-7.0492,-7.0583,-7.065,-7.0617,-7.0675,-7.0741,-7.0697,-7.0759,-7.0751,-7.0752,-7.0414,-7.0375,-7.0793,-7.0793,-7.0793,-7.0793,-7.0793,-7.0793,-7.0433,-7.0575,-7.0539,-7.0684,-7.0676,-7.0768,-7.079,-7.0814,-7.0823,-7.093,-7.0985,-7.0963,-7.0957,-7.1014,-7.1072,-7.106,-7.1086,-7.1165,-7.1137,-7.0822,-7.0776,-7.0731,-7.0693,-7.1172,-7.1172,-7.1467,-7.147,-7.1472]},{"header":{"parameterUnit":"m.s-1","parameterCategory":1,"la1":30.2991,"la2":30.254,"lo1":-89.0895,"lo2":-89.0444,"dy":0.0017,"dx":0.0017,"nx":28,"ny":28,"refTime":"2025-08-08T03:00:00:Z","depth":0,"parameterNumber":3,"parameterNumberName":"V-component_of_WINDS"},"data":[0,0,0,0,0,0,0,0,0,0,0,0,0,0,0,0,0,0,0,0,0,0,0,0,0,0,0,0,0,0,0,0,0,0,0,0,0,0,0,0,0,0,0,0,0,0,0,0,0,0,0,0,0,0,0,0,0,0,-0.5381,-0.5381,0,-0.5344,-0.5344,-0.5344,-0.5342,-0.5342,-0.5343,-0.5343,-0.5307,-0.5305,-0.5304,0,0,0,0,0,0,0,0,0,0,0,0,0,-0.5448,-0.5447,-0.5381,-0.538,-0.538,-0.5345,-0.5344,-0.5344,-0.5342,-0.5342,-0.5343,-0.5343,-0.5307,-0.5305,-0.5304,0,0,0,0,0,0,0,0,0,0,0,0,0,-0.5416,-0.5446,-0.5381,-0.5375,-0.5374,-0.5345,-0.5344,-0.5343,-0.5342,-0.5342,-0.5343,-0.5343,-0.5308,-0.5306,-0.5304,-0.5278,0,0,-0.5297,-0.5296,0,0,0,0,0,0,0,0,-0.5418,-0.5413,-0.5376,-0.5375,-0.5374,-0.5348,-0.5354,-0.5322,-0.5341,-0.5354,-0.5343,-0.5344,-0.532,-0.5317,-0.5309,-0.5277,-0.5275,-0.5297,-0.5296,-0.5295,-0.5294,0,0,0,0,0,0,0,-0.542,-0.5415,-0.5367,-0.5376,-0.5374,-0.5373,-0.537,-0.5348,-0.5334,-0.5353,-0.5353,-0.5348,-0.532,-0.5311,-0.5308,-0.5275,-0.5297,-0.5295,-0.5294,-0.5293,-0.5217,-0.5216,0,0,0,0,0,0,-0.5423,-0.5417,-0.5368,-0.5365,-0.5398,-0.5372,-0.5367,-0.5356,-0.5334,-0.5331,-0.5348,-0.5348,-0.5314,-0.531,-0.5307,-0.5274,-0.5295,-0.5293,-0.5292,-0.5218,-0.5217,-0.5216,0,0,0,0,0,0,-0.5425,-0.5419,-0.5369,-0.5391,-0.5385,-0.537,-0.5357,-0.5355,-0.5346,-0.533,-0.5328,-0.5341,-0.5314,-0.531,-0.5285,-0.5273,-0.5292,-0.529,-0.5219,-0.5217,-0.5216,-0.521,0,0,0,0,0,0,-0.5427,-0.5419,-0.541,-0.5391,-0.5383,-0.5348,-0.5356,-0.5354,-0.5342,-0.5343,-0.5324,-0.5321,-0.5314,-0.5288,-0.5283,-0.527,-0.5289,-0.522,-0.5218,-0.5217,-0.5211,-0.5208,-0.5206,0,0,0,0,0,-0.5429,-0.5411,-0.541,-0.5404,-0.5372,-0.5348,-0.5343,-0.5336,-0.5342,-0.5332,-0.5321,-0.5322,-0.5275,-0.5285,-0.528,-0.5266,-0.522,-0.5219,-0.5217,-0.5212,-0.5209,-0.5206,0,0,0,0,0,0,-0.543,-0.5408,-0.5407,-0.5382,-0.5366,-0.5347,-0.5335,-0.5333,-0.5316,-0.5318,-0.5309,-0.5305,-0.5279,-0.527,-0.5283,-0.5239,-0.5248,-0.5245,-0.5246,-0.5243,-0.5241,-0.5244,-0.5287,0,0,0,0,0,-0.5427,-0.541,-0.5391,-0.5371,-0.5363,-0.535,-0.534,-0.5335,-0.5319,-0.5312,-0.53,-0.5284,-0.5266,-0.5254,-0.5236,-0.5209,-0.5204,-0.5197,-0.5195,-0.5193,-0.519,-0.5173,-0.5169,-0.521,-0.521,-0.521,0,0,-0.5422,-0.5408,-0.5397,-0.5371,-0.5358,-0.534,-0.5345,-0.5326,-0.5312,-0.531,-0.5285,-0.5275,-0.5257,-0.523,-0.5218,-0.5222,-0.5178,-0.5191,-0.5189,-0.5188,-0.5171,-0.5167,-0.5164,-0.5209,-0.5209,-0.5209,0,0,-0.5402,-0.539,-0.537,-0.5357,-0.5338,-0.5329,-0.5324,-0.5304,-0.5297,-0.5272,-0.5269,-0.5252,-0.5221,-0.5207,-0.5197,-0.5168,-0.5167,-0.5162,-0.515,-0.5134,-0.513,-0.5127,-0.5116,-0.5112,-0.516,-0.516,-0.516,0,-0.5398,-0.537,-0.5361,-0.5341,-0.5328,-0.5324,-0.5304,-0.5291,-0.5267,-0.5259,-0.5263,-0.5222,-0.521,-0.5179,-0.5171,-0.5163,-0.5156,-0.5165,-0.5131,-0.5128,-0.5126,-0.5115,-0.511,-0.5159,-0.5159,-0.5159,-0.5159,0,-0.5365,-0.5345,-0.5332,-0.5307,-0.5293,-0.5273,-0.526,-0.5247,-0.5242,-0.5232,-0.5205,-0.519,-0.5168,-0.516,-0.5156,-0.5128,-0.513,-0.5133,-0.5142,-0.5121,-0.5111,-0.5107,-0.5158,-0.5159,-0.5159,-0.5159,0,0,-0.5347,-0.5315,-0.531,-0.5298,-0.5275,-0.5259,-0.5238,-0.5215,-0.5203,-0.5186,-0.5167,-0.5139,-0.5141,-0.5128,-0.5123,-0.5108,-0.5084,-0.5112,-0.5112,-0.5107,-0.505,-0.5048,-0.5043,-0.5083,-0.5082,-0.5082,-0.5051,0,-0.5324,-0.5286,-0.5276,-0.5243,-0.5224,-0.5218,-0.5199,-0.5182,-0.5172,-0.5153,-0.5142,-0.5121,-0.5126,-0.5118,-0.5103,-0.509,-0.5072,-0.5092,-0.5065,-0.5064,-0.507,-0.5038,-0.5036,-0.5008,-0.5047,-0.5046,-0.5046,0,-0.5293,-0.5273,-0.5238,-0.5215,-0.5206,-0.519,-0.5167,-0.5149,-0.5129,-0.5123,-0.5107,-0.5102,-0.5078,-0.5087,-0.5054,-0.5067,-0.5055,-0.5047,-0.5046,-0.5043,-0.5054,-0.5034,-0.4999,-0.4995,-0.5039,-0.504,-0.504,0,-0.5282,-0.5247,-0.5221,-0.5211,-0.5183,-0.5171,-0.5159,-0.5139,-0.5126,-0.5105,-0.5096,-0.5074,-0.5061,-0.5044,-0.5032,-0.504,-0.4999,-0.5008,-0.4992,-0.4992,-0.4984,-0.4985,-0.4947,-0.4977,-0.4977,-0.4977,-0.4977,0,-0.5257,-0.5236,-0.5215,-0.5199,-0.5175,-0.5162,-0.5138,-0.5126,-0.5107,-0.5088,-0.5082,-0.5064,-0.505,-0.503,-0.502,-0.4993,-0.4988,-0.4981,-0.4979,-0.4982,-0.4982,-0.4974,-0.4975,-0.4976,-0.4976,-0.4976,-0.4976,0,-0.5242,-0.5227,-0.5198,-0.5173,-0.5166,-0.5149,-0.5128,-0.5111,-0.5099,-0.5075,-0.5069,-0.505,-0.5026,-0.5012,-0.4982,-0.4975,-0.4944,-0.4943,-0.4951,-0.495,-0.4935,-0.4936,-0.489,-0.4883,-0.4918,-0.4917,-0.4917,0,-0.5227,-0.521,-0.5183,-0.5169,-0.5156,-0.5135,-0.512,-0.5106,-0.5091,-0.5065,-0.5051,-0.5026,-0.5006,-0.4967,-0.495,-0.4926,-0.4924,-0.491,-0.4921,-0.4923,-0.4923,-0.4924,-0.4922,-0.4908,-0.4908,-0.4907,-0.4907,0,-0.5203,-0.5195,-0.5174,-0.5149,-0.5132,-0.5112,-0.5092,-0.5081,-0.5064,-0.5047,-0.5021,-0.5005,-0.4972,-0.4947,-0.4921,-0.4908,-0.4904,-0.4903,-0.4898,-0.4901,-0.4906,-0.4902,-0.4945,-0.4905,-0.4905,-0.4905,-0.4905,-0.4906,-0.5187,-0.517,-0.5148,-0.5124,-0.5107,-0.5088,-0.507,-0.5055,-0.5034,-0.5006,-0.4999,-0.4971,-0.4949,-0.4914,-0.49,-0.4878,-0.488,-0.4873,-0.4872,-0.487,-0.4869,-0.4909,-0.4873,-0.4873,-0.4873,-0.4873,-0.4873,0,-0.5161,-0.5145,-0.5123,-0.5095,-0.5075,-0.5072,-0.5049,-0.5033,-0.5009,-0.4988,-0.4967,-0.4936,-0.4911,-0.4891,-0.4865,-0.4851,-0.4848,-0.4844,-0.4845,-0.4842,-0.4869,-0.4875,-0.4847,-0.4847,-0.4847,-0.4847,-0.4847,-0.4847,-0.5145,-0.5117,-0.5107,-0.5069,-0.5054,-0.5026,-0.5013,-0.4995,-0.4978,-0.4944,-0.4922,-0.4909,-0.4888,-0.486,-0.4836,-0.4831,-0.4821,-0.4818,-0.4812,-0.4838,-0.484,-0.4843,-0.4849,-0.4816,-0.4816,-0.4787,-0.4787,-0.4787]}]]